Terug naar catalogus

STARLINK-4558

ActiefCommunicatieVLEO
NORAD 53426·PAYLOAD·🇺🇸 United States

Gelanceerd Aug 10, 2022 vanaf Cape Canaveral Space Force Station

Loading…

Volgende Passages (komende 24 uur)

TLE

VersSource: CelesTrak SupGP

Epoch: Sep 14, 2026, 21:23 UTC

1 53426C 22097AQ  26257.89145833 -.00040944  00000+0 -12098-2 0  2574
2 53426  53.1594 319.8674 0001080  83.8167 151.9783 15.34407356    12

Volg STARLINK-4558 in realtime met AllMySat

Download on the App Store